Погода в Апарри

Филиппины     18°20′51″N   121°38′47″E
темп.,
°C
ветер,
м/с
пор.,
м/с
влажн.,
%
обл.,
%
осадки,
мм/ч
давл.,
гПа
погр.,
м
22 января, пт
пт2223:00+23юз119899 0.4 101032
02:00+23ююз1298100 0.4 100955
05:00+23ю2397100 0.0 100994
08:00+23ююз2695100 0.0 1010238
11:00+28ю348370 0.1 1010514
14:00+28св118546 4.5 1008343
17:00+25ссв2594100 5.4 1008189
20:00+24с1195100 8.1 101032
23 января, сб
сб2323:00+23зюз1199100 9.1 101063
02:00+23ссз1199100 11.1 100938
05:00+23ю1198100 0.4 100936
08:00+24ю1295100 0.4 1011136
11:00+27ссз228196 0.4 1012627
14:00+25с459496 4.1 1010540
17:00+24ссв4895100 2.4 1010540
20:00+24св4896100 3.6 1012474
24 января, вс
вс2423:00+23св499598 0.6 1013521
02:00+23св5109699 1.3 1012591
05:00+23св61195100 1.2 1012663
08:00+23св61295100 2.8 1014790
11:00+22св61396100 4.4 1015816
14:00+22св61395100 6.1 1013835
17:00+23св4994100 0.4 1013547
20:00+23св3795100 1.1 1014383
25 января, пн
пн2523:00+23всв2393100 0.1 1015217
02:00+23всв2397100 0.8 1014172
05:00+23всв1298100 4.6 1014117
08:00+23юв1297100 6.0 1015117
11:00+23ююз119799 1.9 1015116
14:00+26св239198 4.3 1012456
17:00+25всв249484 3.6 1012209
20:00+23всв239654 5.2 101490
26 января, вт
вт2623:00+23в129657 1.1 101372
02:00+22юз119660 2.2 101355
05:00+22ююв129797 3.1 101361
08:00+22ю139998 12.9 1014160
11:00+22юз1198100 8.7 101483
14:00+23ююз1197100 10.9 1012103
17:00+23ссв0197100 0.9 101274
20:00+22всв129669 1.0 101373